Location: 81360 Arifat, France
(43.7204°N, 2.3408°E)
Time: 19:34:46
(UTC+02:00)

GHALIB - Pass Details

Date: 05 June 2022
Orbit: 510 x 523 km, 97.6° (Epoch: 29 June)

Event Time Altitude Azimuth Distance (km) Brightness Sun altitude
Exits shadow 02:37:39 17° 101° (E) 1,384 ? -22.8°
Maximum altitude 02:39:14 21° 68° (ENE) 1,192 ? -22.8°
Drops below altitude 10° 02:42:09 10° 17° (NNE) 1,756 ? -22.6°
Sets 02:44:35 0° 2° (N) 2,646 ? -22.5°
